Location: Treviso
(45.6669°N, 12.2430°E)
Time: 10:04:11
(UTC+01:00)

ISS - Pass Details

Date: 29 November 2021
Orbit: 417 x 422 km, 51.6° (Epoch: 06 December)

Event Time Altitude Azimuth Distance (km) Brightness Sun altitude
Rises 17:04:05 0° 275° (W) 2,375 1.3 -6.2°
Reaches altitude 10° 17:06:20 10° 286° (WNW) 1,511 -0.1 -6.5°
Maximum altitude 17:09:25 31° 351° (N) 767 -2.6 -7.0°
Drops below altitude 10° 17:12:30 10° 56° (NE) 1,512 -1.6 -7.5°
Enters shadow 17:12:34 10° 56° (ENE) 1,538 -1.6 -7.5°
